Time,TemperatureF,DewpointF,PressureIn,WindDirection,WindDirectionDegrees,WindSpeedMPH,WindSpeedGustMPH,Humidity,HourlyPrecipIn,Conditions,Clouds,dailyrainin,SoftwareType,DateUTC
2013-10-20 00:01:00,48.7,46.2,21.96,NE,45,8.0,8.0,91,0.00,,,0.07,meteohub,2013-10-20 04:01:00,
2013-10-20 00:02:00,48.9,46.4,21.96,South,180,4.0,6.0,91,0.00,,,0.07,meteohub,2013-10-20 04:02:00,
2013-10-20 00:03:00,49.1,46.6,21.97,South,180,3.0,6.0,91,0.00,,,0.07,meteohub,2013-10-20 04:03:00,
2013-10-20 00:04:00,49.1,46.6,21.97,South,180,3.0,6.0,91,0.00,,,0.07,meteohub,2013-10-20 04:04:00,
2013-10-20 00:08:00,49.6,46.6,21.97,West,270,4.0,12.0,89,0.00,,,0.00,meteohub,2013-10-20 04:08:00,
2013-10-20 00:13:00,50.0,45.7,21.96,SW,225,5.0,12.0,85,0.00,,,0.00,meteohub,2013-10-20 04:13:00,
2013-10-20 00:18:00,50.4,45.1,21.96,SW,225,3.0,12.0,82,0.00,,,0.00,meteohub,2013-10-20 04:18:00,
2013-10-20 00:23:00,50.4,44.8,21.96,West,270,4.0,12.0,81,0.00,,,0.00,meteohub,2013-10-20 04:23:00,
2013-10-20 00:29:00,50.5,44.6,21.96,SW,225,5.0,9.0,80,0.00,,,0.00,meteohub,2013-10-20 04:29:00,
2013-10-20 00:34:00,50.7,44.1,21.96,NW,315,2.0,8.0,78,0.00,,,0.00,meteohub,2013-10-20 04:34:00,
2013-10-20 00:39:00,50.7,43.7,21.96,NE,45,3.0,7.0,77,0.00,,,0.00,meteohub,2013-10-20 04:39:00,
2013-10-20 00:44:00,51.1,43.2,21.96,NE,45,3.0,7.0,74,0.00,,,0.00,meteohub,2013-10-20 04:44:00,
2013-10-20 00:49:00,51.1,43.2,21.96,North,0,3.0,8.0,74,0.00,,,0.00,meteohub,2013-10-20 04:49:00,
2013-10-20 00:54:00,51.3,43.0,21.96,North,0,6.0,8.0,73,0.00,,,0.00,meteohub,2013-10-20 04:54:00,
2013-10-20 00:59:00,51.4,42.8,21.96,NW,315,2.0,8.0,72,0.00,,,0.00,meteohub,2013-10-20 04:59:00,
2013-10-20 01:05:00,51.3,43.0,21.96,North,0,10.0,10.0,73,0.00,,,0.00,meteohub,2013-10-20 05:05:00,
2013-10-20 01:10:00,51.3,43.0,21.96,West,270,11.0,11.0,73,0.00,,,0.00,meteohub,2013-10-20 05:10:00,
2013-10-20 01:15:00,51.4,42.8,21.96,NW,315,8.0,12.0,72,0.00,,,0.00,meteohub,2013-10-20 05:15:00,
2013-10-20 01:20:00,51.4,43.2,21.96,NW,315,10.0,14.0,73,0.00,,,0.00,meteohub,2013-10-20 05:20:00,
2013-10-20 01:25:00,50.9,43.0,21.97,NW,315,8.0,14.0,74,0.01,,,0.01,meteohub,2013-10-20 05:25:00,
2013-10-20 01:30:00,50.4,43.2,21.97,NW,315,2.0,14.0,76,0.01,,,0.01,meteohub,2013-10-20 05:30:00,
2013-10-20 01:35:00,50.0,42.8,21.97,NW,315,3.0,14.0,76,0.01,,,0.01,meteohub,2013-10-20 05:35:00,
2013-10-20 01:40:00,50.0,42.8,21.97,NNW,338,11.0,11.0,76,0.01,,,0.01,meteohub,2013-10-20 05:40:00,
2013-10-20 01:45:00,50.0,42.4,21.97,NW,315,7.0,11.0,75,0.01,,,0.01,meteohub,2013-10-20 05:45:00,
2013-10-20 01:51:00,50.2,42.6,21.97,NW,315,10.0,11.0,75,0.01,,,0.01,meteohub,2013-10-20 05:51:00,
2013-10-20 01:56:00,50.4,42.1,21.97,South,180,4.0,14.0,73,0.01,,,0.01,meteohub,2013-10-20 05:56:00,
2013-10-20 02:01:00,50.4,42.1,21.97,NNE,23,4.0,14.0,73,0.01,,,0.01,meteohub,2013-10-20 06:01:00,
2013-10-20 02:06:00,50.4,42.1,21.98,NW,315,5.0,14.0,73,0.01,,,0.01,meteohub,2013-10-20 06:06:00,
2013-10-20 02:11:00,50.4,42.1,21.98,NW,315,6.0,9.0,73,0.01,,,0.01,meteohub,2013-10-20 06:11:00,
2013-10-20 02:16:00,50.2,41.5,21.98,North,0,5.0,13.0,72,0.01,,,0.01,meteohub,2013-10-20 06:16:00,
2013-10-20 02:21:00,50.0,40.3,21.98,WNW,293,9.0,19.0,69,0.00,,,0.01,meteohub,2013-10-20 06:21:00,
2013-10-20 02:26:00,49.8,39.7,21.98,NNW,338,11.0,19.0,68,0.00,,,0.01,meteohub,2013-10-20 06:26:00,
2013-10-20 02:31:00,49.6,39.2,21.99,North,0,6.0,19.0,67,0.00,,,0.01,meteohub,2013-10-20 06:31:00,
2013-10-20 02:36:00,49.5,39.0,21.99,North,0,9.0,16.0,67,0.00,,,0.01,meteohub,2013-10-20 06:36:00,
2013-10-20 02:41:00,49.3,38.8,21.99,NW,315,10.0,16.0,67,0.00,,,0.01,meteohub,2013-10-20 06:41:00,
2013-10-20 02:46:00,49.1,38.7,21.99,NW,315,5.0,12.0,67,0.00,,,0.01,meteohub,2013-10-20 06:46:00,
2013-10-20 02:51:00,48.9,38.5,21.99,NW,315,10.0,12.0,67,0.00,,,0.01,meteohub,2013-10-20 06:51:00,
2013-10-20 02:57:00,48.7,38.7,21.99,NNW,338,8.0,12.0,68,0.00,,,0.01,meteohub,2013-10-20 06:57:00,
2013-10-20 03:02:00,48.6,38.8,21.99,West,270,8.0,11.0,69,0.00,,,0.01,meteohub,2013-10-20 07:02:00,
2013-10-20 03:07:00,48.6,39.2,21.99,NW,315,8.0,15.0,70,0.00,,,0.01,meteohub,2013-10-20 07:07:00,
2013-10-20 03:12:00,48.4,39.4,22.00,NW,315,10.0,15.0,71,0.00,,,0.01,meteohub,2013-10-20 07:12:00,
2013-10-20 03:17:00,48.0,39.4,22.00,NW,315,7.0,15.0,72,0.00,,,0.01,meteohub,2013-10-20 07:17:00,
2013-10-20 03:22:00,47.7,38.3,22.00,SW,225,15.0,15.0,70,0.00,,,0.01,meteohub,2013-10-20 07:22:00,
2013-10-20 03:27:00,47.5,38.1,22.00,WNW,293,12.0,15.0,70,0.00,,,0.01,meteohub,2013-10-20 07:27:00,
2013-10-20 03:32:00,47.1,37.4,22.00,SW,225,12.0,15.0,69,0.00,,,0.01,meteohub,2013-10-20 07:32:00,
2013-10-20 03:37:00,46.9,36.9,22.00,NW,315,7.0,15.0,68,0.00,,,0.01,meteohub,2013-10-20 07:37:00,
2013-10-20 03:42:00,46.6,36.1,22.00,NW,315,8.0,17.0,67,0.00,,,0.01,meteohub,2013-10-20 07:42:00,
2013-10-20 03:47:00,46.2,36.0,22.00,West,270,11.0,17.0,67,0.00,,,0.01,meteohub,2013-10-20 07:47:00,
2013-10-20 03:52:00,46.0,35.2,22.00,NW,315,13.0,17.0,66,0.00,,,0.01,meteohub,2013-10-20 07:52:00,
2013-10-20 03:57:00,45.7,34.5,22.01,West,270,11.0,16.0,65,0.00,,,0.01,meteohub,2013-10-20 07:57:00,
2013-10-20 04:02:00,45.5,34.0,22.01,NW,315,7.0,16.0,64,0.00,,,0.01,meteohub,2013-10-20 08:02:00,
2013-10-20 04:07:00,45.3,33.8,22.01,NE,45,7.0,14.0,64,0.00,,,0.01,meteohub,2013-10-20 08:07:00,
2013-10-20 04:12:00,45.1,33.3,22.01,NW,315,15.0,15.0,63,0.00,,,0.01,meteohub,2013-10-20 08:12:00,
2013-10-20 04:17:00,45.0,33.1,22.01,North,0,8.0,15.0,63,0.00,,,0.01,meteohub,2013-10-20 08:17:00,
2013-10-20 04:22:00,45.0,33.4,22.01,NNW,338,5.0,15.0,64,0.00,,,0.01,meteohub,2013-10-20 08:22:00,
2013-10-20 04:27:00,45.0,33.4,22.01,NW,315,6.0,15.0,64,0.00,,,0.01,meteohub,2013-10-20 08:27:00,
2013-10-20 04:32:00,44.6,33.3,22.01,North,0,8.0,11.0,64,0.00,,,0.01,meteohub,2013-10-20 08:32:00,
2013-10-20 04:37:00,44.4,33.8,22.01,NW,315,11.0,11.0,66,0.00,,,0.01,meteohub,2013-10-20 08:37:00,
2013-10-20 04:42:00,44.4,33.4,22.02,SW,225,11.0,14.0,65,0.00,,,0.01,meteohub,2013-10-20 08:42:00,
2013-10-20 04:47:00,44.6,32.7,22.02,North,0,13.0,15.0,63,0.00,,,0.01,meteohub,2013-10-20 08:47:00,
2013-10-20 04:52:00,44.4,33.4,22.02,NW,315,11.0,17.0,65,0.00,,,0.01,meteohub,2013-10-20 08:52:00,
2013-10-20 04:57:00,44.2,33.3,22.02,North,0,8.0,17.0,65,0.00,,,0.01,meteohub,2013-10-20 08:57:00,
2013-10-20 05:02:00,44.1,32.7,22.03,NW,315,11.0,17.0,64,0.00,,,0.01,meteohub,2013-10-20 09:02:00,
2013-10-20 05:07:00,44.1,32.4,22.03,North,0,6.0,17.0,63,0.00,,,0.01,meteohub,2013-10-20 09:07:00,
2013-10-20 05:12:00,44.1,32.7,22.03,NE,45,5.0,17.0,64,0.00,,,0.01,meteohub,2013-10-20 09:12:00,
2013-10-20 05:17:00,43.9,32.5,22.03,NE,45,8.0,11.0,64,0.00,,,0.01,meteohub,2013-10-20 09:17:00,
2013-10-20 05:22:00,43.5,32.5,22.04,North,0,4.0,11.0,65,0.00,,,0.01,meteohub,2013-10-20 09:22:00,
2013-10-20 05:27:00,43.5,32.5,22.04,North,0,10.0,11.0,65,0.00,,,0.01,meteohub,2013-10-20 09:27:00,
2013-10-20 05:32:00,43.5,32.2,22.04,NNW,338,8.0,14.0,64,0.00,,,0.01,meteohub,2013-10-20 09:32:00,
2013-10-20 05:37:00,43.7,32.0,22.04,NE,45,8.0,14.0,63,0.00,,,0.01,meteohub,2013-10-20 09:37:00,
2013-10-20 05:42:00,43.5,31.8,22.05,North,0,4.0,14.0,63,0.00,,,0.01,meteohub,2013-10-20 09:42:00,
2013-10-20 05:47:00,43.3,31.6,22.05,NW,315,2.0,14.0,63,0.00,,,0.01,meteohub,2013-10-20 09:47:00,
2013-10-20 05:52:00,43.3,31.6,22.05,NE,45,3.0,14.0,63,0.00,,,0.01,meteohub,2013-10-20 09:52:00,
2013-10-20 05:57:00,43.2,31.5,22.04,North,0,12.0,12.0,63,0.00,,,0.01,meteohub,2013-10-20 09:57:00,
2013-10-20 06:02:00,43.3,31.3,22.05,West,270,9.0,14.0,62,0.00,,,0.01,meteohub,2013-10-20 10:02:00,
2013-10-20 06:07:00,43.2,31.5,22.06,NW,315,12.0,14.0,63,0.00,,,0.01,meteohub,2013-10-20 10:07:00,
2013-10-20 06:12:00,43.0,31.3,22.05,North,0,15.0,15.0,63,0.00,,,0.01,meteohub,2013-10-20 10:12:00,
2013-10-20 06:17:00,42.8,31.1,22.05,North,0,9.0,15.0,63,0.00,,,0.01,meteohub,2013-10-20 10:17:00,
2013-10-20 06:22:00,42.8,31.1,22.04,North,0,5.0,15.0,63,0.00,,,0.01,meteohub,2013-10-20 10:22:00,
2013-10-20 06:27:00,42.6,31.3,22.05,NE,45,5.0,15.0,64,0.00,,,0.01,meteohub,2013-10-20 10:27:00,
2013-10-20 06:32:00,42.4,31.5,22.05,West,270,6.0,13.0,65,0.00,,,0.01,meteohub,2013-10-20 10:32:00,
2013-10-20 06:37:00,42.3,31.6,22.05,NE,45,5.0,11.0,66,0.00,,,0.01,meteohub,2013-10-20 10:37:00,
2013-10-20 06:42:00,42.1,32.0,22.06,NNE,23,6.0,11.0,67,0.00,,,0.01,meteohub,2013-10-20 10:42:00,
2013-10-20 06:47:00,42.1,32.0,22.06,NW,315,12.0,12.0,67,0.00,,,0.01,meteohub,2013-10-20 10:47:00,
2013-10-20 06:52:00,41.9,32.2,22.05,East,90,4.0,12.0,68,0.00,,,0.01,meteohub,2013-10-20 10:52:00,
2013-10-20 06:57:00,41.9,32.2,22.06,NE,45,4.0,12.0,68,0.00,,,0.01,meteohub,2013-10-20 10:57:00,
2013-10-20 07:02:00,42.1,32.0,22.06,NE,45,11.0,12.0,67,0.00,,,0.01,meteohub,2013-10-20 11:02:00,
2013-10-20 07:07:00,41.9,31.8,22.06,SW,225,4.0,12.0,67,0.00,,,0.01,meteohub,2013-10-20 11:07:00,
2013-10-20 07:12:00,41.9,31.8,22.06,ENE,68,8.0,11.0,67,0.00,,,0.01,meteohub,2013-10-20 11:12:00,
2013-10-20 07:17:00,41.7,32.0,22.06,NNW,338,6.0,11.0,68,0.00,,,0.01,meteohub,2013-10-20 11:17:00,
2013-10-20 07:22:00,41.7,32.0,22.07,NW,315,4.0,8.0,68,0.00,,,0.01,meteohub,2013-10-20 11:22:00,
2013-10-20 07:27:00,41.7,32.0,22.07,ENE,68,5.0,8.0,68,0.00,,,0.01,meteohub,2013-10-20 11:27:00,
2013-10-20 07:32:00,41.7,32.0,22.08,East,90,8.0,8.0,68,0.00,,,0.01,meteohub,2013-10-20 11:32:00,
2013-10-20 07:37:00,41.7,31.6,22.08,ENE,68,3.0,8.0,67,0.00,,,0.01,meteohub,2013-10-20 11:37:00,
2013-10-20 07:42:00,41.9,30.9,22.08,North,0,8.0,9.0,65,0.00,,,0.01,meteohub,2013-10-20 11:42:00,
2013-10-20 07:47:00,42.3,30.9,22.08,NNW,338,6.0,12.0,64,0.00,,,0.01,meteohub,2013-10-20 11:47:00,
2013-10-20 07:52:00,42.3,30.9,22.09,North,0,11.0,12.0,64,0.00,,,0.01,meteohub,2013-10-20 11:52:00,
2013-10-20 07:57:00,42.4,31.1,22.09,NW,315,9.0,12.0,64,0.00,,,0.01,meteohub,2013-10-20 11:57:00,
2013-10-20 08:02:00,43.2,31.1,22.09,SW,225,7.0,16.0,62,0.00,,,0.01,meteohub,2013-10-20 12:02:00,
2013-10-20 08:07:00,43.3,30.7,22.09,NE,45,8.0,16.0,61,0.00,,,0.01,meteohub,2013-10-20 12:07:00,
2013-10-20 08:12:00,43.5,30.9,22.09,NW,315,8.0,16.0,61,0.00,,,0.01,meteohub,2013-10-20 12:12:00,
2013-10-20 08:17:00,43.9,31.3,22.09,North,0,10.0,15.0,61,0.00,,,0.01,meteohub,2013-10-20 12:17:00,
2013-10-20 08:22:00,44.2,31.3,22.09,West,270,7.0,17.0,60,0.00,,,0.01,meteohub,2013-10-20 12:22:00,
2013-10-20 08:27:00,44.4,30.9,22.10,NW,315,11.0,17.0,59,0.00,,,0.01,meteohub,2013-10-20 12:27:00,
2013-10-20 08:32:00,44.8,31.3,22.10,West,270,9.0,17.0,59,0.00,,,0.01,meteohub,2013-10-20 12:32:00,
2013-10-20 08:37:00,45.0,31.1,22.10,North,0,17.0,17.0,58,0.00,,,0.01,meteohub,2013-10-20 12:37:00,
2013-10-20 08:42:00,45.0,31.1,22.10,NW,315,12.0,22.0,58,0.00,,,0.01,meteohub,2013-10-20 12:42:00,
2013-10-20 08:47:00,45.1,31.3,22.10,NE,45,10.0,22.0,58,0.00,,,0.01,meteohub,2013-10-20 12:47:00,
2013-10-20 08:52:00,45.1,30.7,22.10,NE,45,15.0,22.0,57,0.00,,,0.01,meteohub,2013-10-20 12:52:00,
2013-10-20 08:57:00,45.7,30.4,22.11,North,0,10.0,21.0,55,0.00,,,0.01,meteohub,2013-10-20 12:57:00,
2013-10-20 09:02:00,45.9,30.6,22.12,NW,315,5.0,18.0,55,0.00,,,0.01,meteohub,2013-10-20 13:02:00,
2013-10-20 09:07:00,46.0,30.4,22.11,SW,225,8.0,18.0,54,0.00,,,0.01,meteohub,2013-10-20 13:07:00,
2013-10-20 09:12:00,46.0,30.4,22.12,NW,315,13.0,15.0,54,0.00,,,0.01,meteohub,2013-10-20 13:12:00,
2013-10-20 09:17:00,46.2,30.0,22.12,NW,315,12.0,16.0,53,0.00,,,0.01,meteohub,2013-10-20 13:17:00,
2013-10-20 09:22:00,46.4,30.7,22.12,North,0,9.0,18.0,54,0.00,,,0.01,meteohub,2013-10-20 13:22:00,
2013-10-20 09:27:00,46.2,30.0,22.12,NW,315,13.0,23.0,53,0.00,,,0.01,meteohub,2013-10-20 13:27:00,
2013-10-20 09:32:00,46.4,31.1,22.12,WNW,293,4.0,23.0,55,0.00,,,0.01,meteohub,2013-10-20 13:32:00,
2013-10-20 09:37:00,46.2,30.6,22.12,NW,315,12.0,23.0,54,0.00,,,0.01,meteohub,2013-10-20 13:37:00,
2013-10-20 09:42:00,46.6,30.7,22.12,West,270,10.0,23.0,54,0.00,,,0.01,meteohub,2013-10-20 13:42:00,
2013-10-20 09:47:00,46.8,31.5,22.12,SW,225,4.0,17.0,55,0.00,,,0.01,meteohub,2013-10-20 13:47:00,
2013-10-20 09:52:00,46.9,31.1,22.12,North,0,11.0,12.0,54,0.00,,,0.01,meteohub,2013-10-20 13:52:00,
2013-10-20 09:57:00,47.1,31.8,22.12,NW,315,5.0,12.0,55,0.00,,,0.01,meteohub,2013-10-20 13:57:00,
2013-10-20 10:02:00,47.3,31.5,22.12,NW,315,8.0,13.0,54,0.00,,,0.01,meteohub,2013-10-20 14:02:00,
2013-10-20 10:07:00,47.5,31.6,22.13,NW,315,8.0,13.0,54,0.00,,,0.01,meteohub,2013-10-20 14:07:00,
2013-10-20 10:12:00,47.5,31.6,22.13,North,0,16.0,17.0,54,0.00,,,0.01,meteohub,2013-10-20 14:12:00,
2013-10-20 10:17:00,47.3,31.5,22.13,SW,225,7.0,17.0,54,0.00,,,0.01,meteohub,2013-10-20 14:17:00,
2013-10-20 10:22:00,47.7,31.8,22.13,NW,315,10.0,17.0,54,0.00,,,0.01,meteohub,2013-10-20 14:22:00,
2013-10-20 10:34:00,49.1,32.2,22.13,West,270,7.0,15.0,52,0.00,,,0.01,meteohub,2013-10-20 14:34:00,
2013-10-20 10:40:00,49.5,32.0,22.13,NNW,338,13.0,15.0,51,0.00,,,0.01,meteohub,2013-10-20 14:40:00,
2013-10-20 10:47:00,49.5,32.0,22.13,NNW,338,11.0,15.0,51,0.00,,,0.01,meteohub,2013-10-20 14:47:00,
2013-10-20 10:52:00,49.6,32.2,22.14,WNW,293,15.0,15.0,51,0.00,,,0.01,meteohub,2013-10-20 14:52:00,
2013-10-20 10:57:00,49.6,32.2,22.13,NNW,338,21.0,21.0,51,0.00,,,0.01,meteohub,2013-10-20 14:57:00,
2013-10-20 11:02:00,49.3,30.9,22.14,NW,315,15.0,21.0,49,0.00,,,0.01,meteohub,2013-10-20 15:02:00,
2013-10-20 11:07:00,49.5,31.1,22.14,West,270,9.0,21.0,49,0.00,,,0.01,meteohub,2013-10-20 15:07:00,
2013-10-20 11:12:00,49.1,30.7,22.14,NW,315,5.0,21.0,49,0.00,,,0.01,meteohub,2013-10-20 15:12:00,
2013-10-20 11:17:00,49.6,31.8,22.14,NW,315,11.0,17.0,50,0.00,,,0.01,meteohub,2013-10-20 15:17:00,
2013-10-20 11:22:00,50.2,30.2,22.14,WNW,293,13.0,16.0,46,0.00,,,0.01,meteohub,2013-10-20 15:22:00,
2013-10-20 11:27:00,50.4,30.4,22.14,SW,225,8.0,16.0,46,0.00,,,0.01,meteohub,2013-10-20 15:27:00,
2013-10-20 11:32:00,50.4,29.8,22.14,North,0,8.0,16.0,45,0.00,,,0.01,meteohub,2013-10-20 15:32:00,
2013-10-20 11:37:00,50.5,29.5,22.14,WNW,293,13.0,16.0,44,0.00,,,0.01,meteohub,2013-10-20 15:37:00,
2013-10-20 11:42:00,50.9,29.8,22.15,North,0,8.0,16.0,44,0.00,,,0.01,meteohub,2013-10-20 15:42:00,
2013-10-20 11:47:00,51.3,29.5,22.14,NNW,338,10.0,13.0,43,0.00,,,0.01,meteohub,2013-10-20 15:47:00,
2013-10-20 11:52:00,51.6,28.8,22.14,North,0,17.0,17.0,41,0.00,,,0.01,meteohub,2013-10-20 15:52:00,